| time (UTC) | temp C | wind direction | speed KPH | gust KPH | rain 1hr cm | rain 24hr cm | rain mn cm | humidity % | barometer mb |
| 20260504043024 | 13 | 359 | 0.0 | 0.0 | 0.00 | 0.00 | 0.00 | 89 | 1018.5 |
| 20260504042519 | 13 | 359 | 0.0 | 0.0 | 0.00 | 0.00 | 0.00 | 89 | 1018.5 |
| 20260504042018 | 13 | 359 | 0.0 | 0.0 | 0.00 | 0.00 | 0.00 | 89 | 1018.5 |
| 20260504041515 | 13 | 359 | 0.0 | 0.0 | 0.00 | 0.00 | 0.00 | 88 | 1018.4 |
| 20260504041014 | 13 | 359 | 0.0 | 0.0 | 0.00 | 0.00 | 0.00 | 88 | 1018.5 |
| 20260504040512 | 13 | 359 | 0.0 | 0.0 | 0.00 | 0.00 | 0.00 | 88 | 1018.5 |
| 20260504040008 | 13 | 359 | 0.0 | 0.0 | 0.00 | 0.00 | 0.00 | 88 | 1018.5 |
| 20260504035512 | 14 | 359 | 0.0 | 0.0 | 0.00 | 0.00 | 0.00 | 88 | 1018.5 |
| 20260504035013 | 14 | 359 | 0.0 | 0.0 | 0.00 | 0.00 | 0.00 | 88 | 1018.5 |
| 20260504034508 | 14 | 359 | 0.0 | 0.0 | 0.00 | 0.00 | 0.00 | 87 | 1018.5 |
| 20260504034014 | 14 | 359 | 0.0 | 0.0 | 0.00 | 0.00 | 0.00 | 87 | 1018.5 |
| 20260504033607 | 14 | 359 | 0.0 | 0.0 | 0.00 | 0.00 | 0.00 | 87 | 1018.5 |
| 20260504033003 | 14 | 359 | 0.0 | 0.0 | 0.00 | 0.00 | 0.00 | 87 | 1018.6 |
| 20260504032603 | 14 | 359 | 0.0 | 0.0 | 0.00 | 0.00 | 0.00 | 87 | 1018.6 |
| 20260504032007 | 14 | 359 | 0.0 | 0.0 | 0.00 | 0.00 | 0.00 | 86 | 1018.6 |
| 20260504031501 | 15 | 359 | 0.0 | 0.0 | 0.00 | 0.00 | 0.00 | 86 | 1018.6 |
| 20260504031001 | 15 | 359 | 0.0 | 0.0 | 0.00 | 0.00 | 0.00 | 86 | 1018.6 |
| 20260504030503 | 15 | 359 | 0.0 | 0.0 | 0.00 | 0.00 | 0.00 | 86 | 1018.6 |
| 20260504030100 | 15 | 359 | 0.0 | 0.0 | 0.00 | 0.00 | 0.00 | 85 | 1018.5 |
| 20260504025559 | 15 | 359 | 0.0 | 0.0 | 0.00 | 0.00 | 0.00 | 85 | 1018.6 |
| 20260504025501 | 15 | 359 | 0.0 | 0.0 | 0.00 | 0.00 | 0.00 | 85 | 1018.6 |
| 20260504025059 | 15 | 359 | 0.0 | 0.0 | 0.00 | 0.00 | 0.00 | 85 | 1018.4 |
| 20260504024601 | 15 | 359 | 0.0 | 0.0 | 0.00 | 0.00 | 0.00 | 85 | 1018.4 |
| 20260504024502 | 15 | 359 | 0.0 | 0.0 | 0.00 | 0.00 | 0.00 | 85 | 1018.4 |
| 20260504024102 | 15 | 359 | 0.0 | 0.0 | 0.00 | 0.00 | 0.00 | 84 | 1018.4 |
| 20260504023055 | 15 | 359 | 0.0 | 0.0 | 0.00 | 0.00 | 0.00 | 84 | 1018.4 |
| 20260504022552 | 15 | 359 | 0.0 | 0.0 | 0.00 | 0.00 | 0.00 | 83 | 1018.5 |
| 20260504022051 | 15 | 359 | 0.0 | 0.0 | 0.00 | 0.00 | 0.00 | 83 | 1018.4 |
| 20260504021049 | 16 | 359 | 0.0 | 0.0 | 0.00 | 0.00 | 0.00 | 82 | 1018.2 |
| 20260504020552 | 16 | 359 | 0.0 | 0.0 | 0.00 | 0.00 | 0.00 | 81 | 1018.1 |
| 20260504020056 | 16 | 359 | 0.0 | 0.0 | 0.00 | 0.00 | 0.00 | 81 | 1018.1 |
| 20260504015549 | 16 | 359 | 0.0 | 0.0 | 0.00 | 0.00 | 0.00 | 81 | 1018.0 |
| 20260504015047 | 16 | 359 | 0.0 | 0.0 | 0.00 | 0.00 | 0.00 | 81 | 1018.0 |
| 20260504014556 | 16 | 359 | 0.0 | 0.0 | 0.00 | 0.00 | 0.00 | 80 | 1017.9 |
| 20260504014048 | 16 | 359 | 0.0 | 0.0 | 0.00 | 0.00 | 0.00 | 78 | 1017.9 |
| 20260504013545 | 16 | 359 | 0.0 | 0.0 | 0.00 | 0.00 | 0.00 | 78 | 1017.8 |
| 20260504013046 | 16 | 359 | 0.0 | 0.0 | 0.00 | 0.00 | 0.00 | 78 | 1017.7 |
| 20260504012550 | 17 | 359 | 0.0 | 0.0 | 0.00 | 0.00 | 0.00 | 77 | 1017.6 |
| 20260504012044 | 17 | 359 | 0.0 | 0.0 | 0.00 | 0.00 | 0.00 | 76 | 1017.6 |
| 20260504011542 | 17 | 359 | 0.0 | 0.0 | 0.00 | 0.00 | 0.00 | 75 | 1017.6 |
| 20260504011038 | 17 | 359 | 0.0 | 0.0 | 0.00 | 0.00 | 0.00 | 75 | 1017.6 |
| 20260504010541 | 17 | 359 | 0.0 | 1.6 | 0.00 | 0.00 | 0.00 | 75 | 1017.6 |
| 20260504010041 | 17 | 3 | 0.0 | 1.6 | 0.00 | 0.00 | 0.00 | 74 | 1017.5 |
| 20260504005539 | 17 | 4 | 0.0 | 1.6 | 0.00 | 0.00 | 0.00 | 73 | 1017.4 |
| 20260504005039 | 17 | 4 | 0.0 | 1.6 | 0.00 | 0.00 | 0.00 | 72 | 1017.4 |
| 20260504004536 | 17 | 5 | 0.0 | 0.0 | 0.00 | 0.00 | 0.00 | 72 | 1017.4 |
| 20260504004038 | 18 | 5 | 0.0 | 0.0 | 0.00 | 0.00 | 0.00 | 71 | 1017.3 |
| 20260504003542 | 18 | 5 | 0.0 | 0.0 | 0.00 | 0.00 | 0.00 | 71 | 1017.4 |
| 20260504003034 | 18 | 5 | 0.0 | 0.0 | 0.00 | 0.00 | 0.00 | 70 | 1017.4 |
| 20260504002533 | 18 | 5 | 0.0 | 0.0 | 0.00 | 0.00 | 0.00 | 70 | 1017.3 |
| 20260504002032 | 18 | 5 | 0.0 | 1.6 | 0.00 | 0.00 | 0.00 | 68 | 1017.2 |
| 20260504001537 | 18 | 6 | 0.0 | 1.6 | 0.00 | 0.00 | 0.00 | 67 | 1017.3 |
| 20260504001033 | 19 | 5 | 0.0 | 0.0 | 0.00 | 0.00 | 0.00 | 67 | 1017.3 |
| 20260504000532 | 19 | 352 | 0.0 | 1.6 | 0.00 | 0.00 | 0.00 | 66 | 1017.4 |
| 20260504000040 | 19 | 4 | 0.0 | 3.2 | 0.00 | 0.00 | 0.00 | 65 | 1017.5 |
| 20260503235547 | 20 | 355 | 0.0 | 4.8 | 0.00 | 0.00 | 0.00 | 65 | 1017.5 |
| 20260503235026 | 20 | 149 | 0.0 | 4.8 | 0.00 | 0.00 | 0.00 | 63 | 1017.5 |
| 20260503234526 | 20 | 15 | 0.0 | 3.2 | 0.00 | 0.00 | 0.00 | 63 | 1017.5 |
| 20260503234026 | 20 | 278 | 0.0 | 3.2 | 0.00 | 0.00 | 0.00 | 63 | 1017.5 |
| 20260503233529 | 20 | 129 | 0.0 | 3.2 | 0.00 | 0.00 | 0.00 | 62 | 1017.4 |
| 20260503233025 | 21 | 101 | 0.0 | 6.4 | 0.00 | 0.00 | 0.00 | 62 | 1017.4 |
| 20260503232522 | 21 | 167 | 0.0 | 6.4 | 0.00 | 0.00 | 0.00 | 61 | 1017.4 |
| 20260503232024 | 21 | 126 | 0.0 | 3.2 | 0.00 | 0.00 | 0.00 | 61 | 1017.4 |
| 20260503231521 | 21 | 321 | 0.0 | 3.2 | 0.00 | 0.00 | 0.00 | 59 | 1017.3 |
| 20260503231021 | 22 | 253 | 0.0 | 1.6 | 0.00 | 0.00 | 0.00 | 58 | 1017.2 |
| 20260503230521 | 22 | 254 | 0.0 | 3.2 | 0.00 | 0.00 | 0.00 | 57 | 1017.2 |
| 20260503230021 | 22 | 15 | 0.0 | 3.2 | 0.00 | 0.00 | 0.00 | 56 | 1017.2 |
| 20260503225520 | 22 | 340 | 0.0 | 4.8 | 0.00 | 0.00 | 0.00 | 55 | 1017.3 |
| 20260503225018 | 22 | 352 | 0.0 | 4.8 | 0.00 | 0.00 | 0.00 | 56 | 1017.3 |
| 20260503224521 | 22 | 235 | 0.0 | 1.6 | 0.00 | 0.00 | 0.00 | 54 | 1017.3 |
| 20260503224016 | 22 | 325 | 0.0 | 1.6 | 0.00 | 0.00 | 0.00 | 54 | 1017.3 |
| 20260503223516 | 22 | 328 | 0.0 | 1.6 | 0.00 | 0.00 | 0.00 | 55 | 1017.4 |
| 20260503223016 | 22 | 312 | 0.0 | 3.2 | 0.00 | 0.00 | 0.00 | 54 | 1017.3 |
| 20260503222016 | 22 | 16 | 1.6 | 4.8 | 0.00 | 0.00 | 0.00 | 52 | 1017.2 |
| 20260503221511 | 22 | 295 | 0.0 | 3.2 | 0.00 | 0.00 | 0.00 | 53 | 1017.2 |
| 20260503221014 | 22 | 51 | 0.0 | 4.8 | 0.00 | 0.00 | 0.00 | 52 | 1017.2 |
| 20260503220612 | 22 | 100 | 0.0 | 4.8 | 0.00 | 0.00 | 0.00 | 53 | 1017.3 |
| 20260503220020 | 23 | 318 | 0.0 | 4.8 | 0.00 | 0.00 | 0.00 | 53 | 1017.2 |
| 20260503215510 | 23 | 309 | 1.6 | 4.8 | 0.00 | 0.00 | 0.00 | 53 | 1017.4 |
| 20260503215012 | 23 | 312 | 1.6 | 4.8 | 0.00 | 0.00 | 0.00 | 52 | 1017.3 |
| 20260503214522 | 24 | 354 | 0.0 | 3.2 | 0.00 | 0.00 | 0.00 | 54 | 1017.2 |
| 20260503214009 | 23 | 274 | 0.0 | 4.8 | 0.00 | 0.00 | 0.00 | 55 | 1017.2 |
| 20260503213509 | 23 | 344 | 0.0 | 8.0 | 0.00 | 0.00 | 0.00 | 55 | 1017.1 |
| 20260503213005 | 23 | 340 | 0.0 | 8.0 | 0.00 | 0.00 | 0.00 | 55 | 1017.1 |
| 20260503212508 | 23 | 326 | 1.6 | 6.4 | 0.00 | 0.00 | 0.00 | 54 | 1017.1 |
| 20260503212005 | 24 | 207 | 0.0 | 9.7 | 0.00 | 0.00 | 0.00 | 55 | 1017.1 |
| 20260503211503 | 24 | 321 | 0.0 | 9.7 | 0.00 | 0.00 | 0.00 | 53 | 1017.2 |
| 20260503211004 | 24 | 278 | 1.6 | 9.7 | 0.00 | 0.00 | 0.00 | 52 | 1017.2 |
| 20260503210502 | 24 | 253 | 0.0 | 6.4 | 0.00 | 0.00 | 0.00 | 53 | 1017.2 |
| 20260503210005 | 25 | 96 | 0.0 | 6.4 | 0.00 | 0.00 | 0.00 | 54 | 1017.2 |
| 20260503205502 | 24 | 144 | 0.0 | 4.8 | 0.00 | 0.00 | 0.00 | 56 | 1017.2 |
| 20260503205103 | 24 | 227 | 0.0 | 6.4 | 0.00 | 0.00 | 0.00 | 54 | 1017.2 |
| 20260503205004 | 24 | 318 | 0.0 | 6.4 | 0.00 | 0.00 | 0.00 | 55 | 1017.3 |
| 20260503204508 | 24 | 326 | 0.0 | 6.4 | 0.00 | 0.00 | 0.00 | 56 | 1017.3 |
| 20260503204013 | 24 | 315 | 0.0 | 4.8 | 0.00 | 0.00 | 0.00 | 56 | 1017.4 |
| 20260503203105 | 25 | 144 | 1.6 | 11.3 | 0.00 | 0.00 | 0.00 | 52 | 1017.5 |
| 20260503202555 | 25 | 297 | 0.0 | 11.3 | 0.00 | 0.00 | 0.00 | 55 | 1017.5 |
| 20260503202053 | 25 | 321 | 1.6 | 8.0 | 0.00 | 0.00 | 0.00 | 54 | 1017.5 |
| 20260503201551 | 25 | 88 | 3.2 | 8.0 | 0.00 | 0.00 | 0.00 | 54 | 1017.5 |
| 20260503201052 | 25 | 236 | 1.6 | 9.7 | 0.00 | 0.00 | 0.00 | 51 | 1017.6 |
| 20260503200549 | 25 | 243 | 0.0 | 12.9 | 0.00 | 0.00 | 0.00 | 55 | 1017.6 |
| 20260503200050 | 25 | 268 | 0.0 | 6.4 | 0.00 | 0.00 | 0.00 | 54 | 1017.6 |
| 20260503200003 | 25 | 274 | 0.0 | 6.4 | 0.00 | 0.00 | 0.00 | 55 | 1017.6 |
| 20260503195549 | 25 | 266 | 0.0 | 8.0 | 0.00 | 0.00 | 0.00 | 55 | 1017.7 |
| 20260503195154 | 25 | 13 | 1.6 | 8.0 | 0.00 | 0.00 | 0.00 | 54 | 1017.9 |
| 20260503194554 | 25 | 68 | 1.6 | 9.7 | 0.00 | 0.00 | 0.00 | 56 | 1017.8 |
| 20260503194046 | 25 | 104 | 0.0 | 4.8 | 0.00 | 0.00 | 0.00 | 56 | 1017.9 |
| 20260503193544 | 25 | 160 | 0.0 | 4.8 | 0.00 | 0.00 | 0.00 | 56 | 1017.8 |
| 20260503193043 | 24 | 135 | 1.6 | 4.8 | 0.00 | 0.00 | 0.00 | 56 | 1017.9 |
| 20260503192539 | 24 | 335 | 0.0 | 3.2 | 0.00 | 0.00 | 0.00 | 58 | 1018.0 |
| 20260503192143 | 24 | 135 | 0.0 | 8.0 | 0.00 | 0.00 | 0.00 | 56 | 1018.3 |
| 20260503191538 | 25 | 335 | 1.6 | 8.0 | 0.00 | 0.00 | 0.00 | 54 | 1018.3 |
| 20260503191033 | 25 | 113 | 0.0 | 8.0 | 0.00 | 0.00 | 0.00 | 56 | 1018.4 |
| 20260503190531 | 25 | 304 | 0.0 | 4.8 | 0.00 | 0.00 | 0.00 | 52 | 1018.3 |
| 20260503190042 | 26 | 129 | 0.0 | 4.8 | 0.00 | 0.00 | 0.00 | 52 | 1018.5 |
| 20260503185530 | 26 | 259 | 1.6 | 6.4 | 0.00 | 0.00 | 0.00 | 55 | 1018.5 |
| 20260503185032 | 25 | 258 | 0.0 | 8.0 | 0.00 | 0.00 | 0.00 | 58 | 1018.5 |
| 20260503184530 | 25 | 238 | 0.0 | 9.7 | 0.00 | 0.00 | 0.00 | 57 | 1018.6 |
| 20260503184032 | 26 | 341 | 1.6 | 9.7 | 0.00 | 0.00 | 0.00 | 51 | 1018.6 |
| 20260503183529 | 26 | 170 | 1.6 | 8.0 | 0.00 | 0.00 | 0.00 | 53 | 1018.5 |
| 20260503183026 | 25 | 255 | 1.6 | 11.3 | 0.00 | 0.00 | 0.00 | 54 | 1018.6 |
| 20260503182521 | 25 | 247 | 1.6 | 11.3 | 0.00 | 0.00 | 0.00 | 56 | 1018.6 |
| 20260503182020 | 25 | 331 | 1.6 | 6.4 | 0.00 | 0.00 | 0.00 | 55 | 1018.7 |
| 20260503181521 | 25 | 173 | 0.0 | 6.4 | 0.00 | 0.00 | 0.00 | 59 | 1018.7 |
| 20260503181023 | 24 | 90 | 1.6 | 6.4 | 0.00 | 0.00 | 0.00 | 57 | 1018.6 |
| 20260503180518 | 23 | 108 | 0.0 | 8.0 | 0.00 | 0.00 | 0.00 | 63 | 1018.6 |
| 20260503180018 | 23 | 175 | 1.6 | 8.0 | 0.00 | 0.00 | 0.00 | 58 | 1018.7 |
| 20260503175516 | 24 | 200 | 0.0 | 6.4 | 0.00 | 0.13 | 0.00 | 59 | 1018.8 |
| 20260503175014 | 24 | 321 | 1.6 | 9.7 | 0.00 | 0.13 | 0.00 | 57 | 1018.6 |
| 20260503174517 | 24 | 326 | 0.0 | 9.7 | 0.00 | 0.13 | 0.00 | 62 | 1018.8 |
| 20260503174020 | 23 | 284 | 0.0 | 8.0 | 0.00 | 0.13 | 0.00 | 58 | 1018.6 |
| 20260503173513 | 23 | 313 | 1.6 | 8.0 | 0.00 | 0.13 | 0.00 | 58 | 1018.8 |
| 20260503173012 | 24 | 269 | 0.0 | 6.4 | 0.00 | 0.13 | 0.00 | 59 | 1018.7 |
| 20260503172512 | 25 | 298 | 0.0 | 8.0 | 0.00 | 0.13 | 0.00 | 59 | 1018.8 |
| 20260503172013 | 25 | 287 | 1.6 | 8.0 | 0.00 | 0.13 | 0.00 | 59 | 1018.7 |
| 20260503171513 | 24 | 340 | 1.6 | 6.4 | 0.00 | 0.13 | 0.00 | 58 | 1019.0 |
| 20260503171010 | 25 | 80 | 0.0 | 6.4 | 0.00 | 0.13 | 0.00 | 58 | 1019.1 |
| 20260503170513 | 24 | 113 | 0.0 | 6.4 | 0.00 | 0.13 | 0.00 | 57 | 1019.1 |
| 20260503150534 | 22 | 306 | 0.0 | 6.4 | 0.00 | 0.51 | 0.00 | 72 | 1019.3 |
| 20260503131040 | 16 | 328 | 0.0 | 4.8 | 0.00 | 0.58 | 0.00 | 89 | 1018.6 |
| 20260503130538 | 16 | 127 | 0.0 | 3.2 | 0.00 | 0.58 | 0.00 | 89 | 1018.6 |
| 20260503110505 | 13 | 65 | 0.0 | 0.0 | 0.00 | 0.58 | 0.00 | 93 | 1017.7 |
| 20260503081523 | 15 | 17 | 0.0 | 1.6 | 0.00 | 0.58 | 0.00 | 93 | 1016.1 |
| 20260503081016 | 15 | 314 | 0.0 | 1.6 | 0.00 | 0.58 | 0.00 | 93 | 1016.1 |
| 20260503080613 | 15 | 312 | 0.0 | 3.2 | 0.00 | 0.58 | 0.00 | 93 | 1016.0 |
| 20260503072508 | 15 | 354 | 0.0 | 1.6 | 0.00 | 0.58 | 0.00 | 93 | 1015.8 |
| 20260503072006 | 15 | 327 | 0.0 | 0.0 | 0.00 | 0.58 | 0.00 | 93 | 1015.7 |
| 20260503071510 | 15 | 327 | 0.0 | 0.0 | 0.00 | 0.58 | 0.00 | 93 | 1015.7 |
| 20260503071004 | 15 | 327 | 0.0 | 0.0 | 0.00 | 0.58 | 0.00 | 93 | 1015.7 |
| 20260503070502 | 14 | 326 | 0.0 | 0.0 | 0.00 | 0.58 | 0.00 | 93 | 1015.6 |
| 20260503055051 | 15 | 328 | 0.0 | 0.0 | 0.00 | 0.58 | 0.00 | 92 | 1015.5 |
| 20260503054549 | 15 | 328 | 0.0 | 0.0 | 0.00 | 0.58 | 0.00 | 92 | 1015.6 |
| 20260503054050 | 15 | 328 | 0.0 | 0.0 | 0.00 | 0.58 | 0.00 | 92 | 1015.6 |
| 20260503053551 | 15 | 328 | 0.0 | 0.0 | 0.00 | 0.58 | 0.00 | 92 | 1015.5 |
| 20260503053048 | 15 | 328 | 0.0 | 1.6 | 0.00 | 0.58 | 0.00 | 92 | 1015.6 |
| 20260503052645 | 15 | 328 | 0.0 | 1.6 | 0.00 | 0.58 | 0.00 | 92 | 1015.4 |
| 20260503052040 | 15 | 234 | 0.0 | 0.0 | 0.00 | 0.58 | 0.00 | 92 | 1015.4 |
| 20260503051542 | 15 | 234 | 0.0 | 1.6 | 0.00 | 0.58 | 0.00 | 92 | 1015.3 |
| 20260503051041 | 15 | 235 | 0.0 | 1.6 | 0.00 | 0.58 | 0.00 | 92 | 1015.3 |
| 20260503050539 | 15 | 244 | 0.0 | 1.6 | 0.00 | 0.58 | 0.00 | 92 | 1015.3 |
| 20260503050051 | 15 | 336 | 0.0 | 0.0 | 0.00 | 0.58 | 0.00 | 92 | 1015.3 |
| 20260503045531 | 15 | 336 | 0.0 | 1.6 | 0.00 | 0.58 | 0.00 | 92 | 1015.3 |
| 20260503045032 | 15 | 335 | 0.0 | 1.6 | 0.00 | 0.58 | 0.00 | 92 | 1015.2 |
| 20260503044538 | 15 | 106 | 0.0 | 1.6 | 0.00 | 0.58 | 0.00 | 91 | 1015.1 |
| 20260503044034 | 15 | 131 | 0.0 | 1.6 | 0.00 | 0.58 | 0.00 | 92 | 1015.1 |
| 20260503043524 | 15 | 221 | 0.0 | 1.6 | 0.00 | 0.58 | 0.00 | 91 | 1015.0 |